Weather History for Corpus Christi, TX

Change the Weather History Date:

Thursday, November 21, 2013

  Actual Average Record
Temperature  
Mean Temperature 80 °F 64 °F  
Max Temperature 87 °F 74 °F 91 °F (1996)
Min Temperature 72 °F 54 °F 32 °F (1969)
Degree Days  
Heating Degree Days 0 4  
Month to date heating degree days 26 47  
Since 1 July heating degree days 26 57  
Cooling Degree Days 15 3  
Month to date cooling degree days 129 99  
Year to date cooling degree days 4112 3450  
Growing Degree Days 30 (Base 50)    
Moisture  
Dew Point 72 °F    
Average Humidity 81    
Maximum Humidity 100    
Minimum Humidity 61    
Precipitation  
Precipitation 0.00 in 0.05 in 2.07 in (1982)
Month to date precipitation 0.53 1.52  
Year to date precipitation 20.30 29.48  
Snow  
Snow 0.00 in - - ()
Month to date snowfall 0.0  
Since 1 July snowfall 0.0  
Since 1 September snowfall 0.0  
Snow Depth 0.00 in    
Sea Level Pressure  
Sea Level Pressure 29.96 in    
Wind  
Wind Speed 15 mph (SSE)    
Max Wind Speed 25 mph    
Max Gust Speed 32 mph    
Visibility 10 miles    
Events      
T = Trace of Precipitation, MM = Missing Value Source: NWS Daily Summary

Daily Weather History Graph

Daily Weather History Graph

Search for Another Location

Airport:

Trip Planner

Search our weather history database for the weather conditions in past years. The results will help you decide how hot, cold, wet, or windy it might be!

Date:

Astronomy

Nov. 21, 2013 Rise Set
Actual Time 6:56 AM CST 5:35 PM CST
Civil Twilight 6:31 AM CST 6:00 PM CST
Nautical Twilight 6:02 AM CST 6:29 PM CST
Astronomical Twilight 5:34 AM CST 6:57 PM CST
Moon 9:10 PM CST (11/21) 10:05 AM CST (11/21)
Length of Visible Light 11h 29m
Length of Day
10h 39m
Waning Gibbous, 85% of the Moon is Illuminated
Nov 21
Waning Gibbous
Nov 25
Last Quarter
Dec 2
New
Dec 9
First Quarter
Dec 17
Full

Hourly Weather History & Observations

Time (CST) Temp. Heat Index Dew Point Humidity Pressure Visibility Wind Dir Wind Speed Gust Speed Precip Events Conditions
12:51 AM 73.0 °F - 71.1 °F 93% 29.92 in 10.0 mi SSE 8.1 mph - N/A   Partly Cloudy
1:51 AM 73.0 °F - 71.1 °F 93% 29.92 in 10.0 mi SSE 6.9 mph - N/A   Partly Cloudy
2:51 AM 73.9 °F - 72.0 °F 93% 29.91 in 10.0 mi SSE 10.4 mph - N/A   Mostly Cloudy
3:47 AM 75.2 °F - 71.6 °F 89% 29.92 in 10.0 mi South 9.2 mph - N/A   Overcast
3:51 AM 75.0 °F - 72.0 °F 90% 29.92 in 10.0 mi South 9.2 mph - N/A   Overcast
4:21 AM 75.2 °F - 71.6 °F 89% 29.92 in 10.0 mi SSE 9.2 mph - N/A   Overcast
4:51 AM 73.9 °F - 72.0 °F 93% 29.92 in 10.0 mi SSE 8.1 mph - N/A   Overcast
5:51 AM 73.0 °F - 72.0 °F 96% 29.93 in 8.0 mi SSE 6.9 mph - N/A   Overcast
6:18 AM 73.4 °F - 71.6 °F 94% 29.93 in 8.0 mi SSE 6.9 mph - N/A   Partly Cloudy
6:51 AM 72.0 °F - 71.1 °F 97% 29.94 in 4.0 mi SSE 6.9 mph - N/A   Partly Cloudy
7:51 AM 73.9 °F - 72.0 °F 93% 29.96 in 4.0 mi SE 11.5 mph - N/A   Scattered Clouds
8:26 AM 75.2 °F - 73.4 °F 94% 29.97 in 10.0 mi SSE 13.8 mph - N/A   Mostly Cloudy
8:51 AM 77.0 °F - 73.9 °F 90% 29.98 in 10.0 mi SSE 15.0 mph - N/A   Mostly Cloudy
9:33 AM 80.6 °F 85.4 °F 73.4 °F 79% 29.99 in 10.0 mi SSE 20.7 mph - N/A   Mostly Cloudy
9:51 AM 81.0 °F 85.8 °F 73.0 °F 77% 29.99 in 10.0 mi SSE 19.6 mph - N/A   Mostly Cloudy
10:51 AM 82.9 °F 88.0 °F 72.0 °F 69% 29.99 in 10.0 mi SSE 23.0 mph - N/A   Mostly Cloudy
11:43 AM 86.0 °F 91.8 °F 71.6 °F 62% 29.97 in 10.0 mi SSE 23.0 mph - N/A   Mostly Cloudy
11:51 AM 86.0 °F 92.2 °F 72.0 °F 63% 29.97 in 10.0 mi SSE 23.0 mph - N/A   Mostly Cloudy
12:51 PM 86.0 °F 92.2 °F 72.0 °F 63% 29.94 in 10.0 mi SSE 23.0 mph - N/A   Mostly Cloudy
1:51 PM 84.9 °F 90.7 °F 72.0 °F 65% 29.93 in 10.0 mi SSE 24.2 mph - N/A   Mostly Cloudy
2:51 PM 86.0 °F 93.0 °F 73.0 °F 65% 29.92 in 10.0 mi SE 23.0 mph - N/A   Mostly Cloudy
3:51 PM 82.9 °F 88.0 °F 72.0 °F 69% 29.93 in 10.0 mi SE 21.9 mph - N/A   Mostly Cloudy
4:51 PM 81.0 °F 85.2 °F 72.0 °F 74% 29.94 in 10.0 mi SE 20.7 mph 27.6 mph N/A   Scattered Clouds
5:10 PM 80.6 °F 85.4 °F 73.4 °F 79% 29.94 in 10.0 mi SE 17.3 mph 27.6 mph N/A   Mostly Cloudy
5:37 PM 78.8 °F - 73.4 °F 83% 29.95 in 10.0 mi SE 18.4 mph - N/A   Scattered Clouds
5:51 PM 79.0 °F - 72.0 °F 79% 29.95 in 10.0 mi SE 16.1 mph - N/A   Partly Cloudy
6:47 PM 78.8 °F - 73.4 °F 83% 29.98 in 10.0 mi SE 13.8 mph - N/A   Partly Cloudy
6:51 PM 77.0 °F - 73.0 °F 88% 29.98 in 10.0 mi SE 13.8 mph - N/A   Partly Cloudy
7:51 PM 77.0 °F - 73.0 °F 88% 29.99 in 10.0 mi SE 16.1 mph - N/A   Scattered Clouds
8:51 PM 77.0 °F - 73.0 °F 88% 30.01 in 10.0 mi SE 17.3 mph - N/A   Partly Cloudy
9:51 PM 75.9 °F - 73.0 °F 91% 30.02 in 10.0 mi SSE 12.7 mph - N/A   Partly Cloudy
10:51 PM 75.0 °F - 73.0 °F 94% 30.02 in 10.0 mi SE 10.4 mph - N/A   Partly Cloudy
11:51 PM 75.0 °F - 72.0 °F 90% 30.03 in 10.0 mi SE 9.2 mph - N/A   Partly Cloudy